Wind_Speed
40 38 35 31 29 29 29 28 30 31 31 32 29 24 26 26 20 18 20 18 16 15 16 19 21 23 22 21 20 19 19 19 17 16 15 14 15 16 17 17 16 17 18 19 20 20 19 21 24 26 26 25 25 26 26 25 23 21 19 18 18 18 18
41 39 36 33 32 32 31 31 33 34 33 33 30 26 27 28 22 19 22 21 17 16 16 19 22 23 23 22 20 19 18 18 16 14 14 14 14 16 16 17 16 17 19 20 20 20 20 21 23 26 27 26 25 26 27 25 21 21 20 18 18 18 18
42 40 37 34 33 33 33 33 35 36 35 34 32 29 29 30 24 20 23 23 19 17 17 19 22 23 23 22 20 19 18 17 15 13 13 13 14 15 16 17 17 17 19 21 21 21 22 22 23 25 26 27 27 26 25 23 20 19 19 18 17 18 17
43 41 38 36 36 35 35 35 36 37 37 34 32 31 31 31 26 21 24 24 20 18 18 20 23 24 24 22 20 19 18 16 14 13 12 12 13 15 16 17 17 17 19 21 22 21 22 23 23 25 26 27 27 27 24 21 19 18 18 18 17 17 15
44 41 40 39 39 38 36 36 37 37 37 35 33 32 32 32 28 24 25 25 20 19 19 21 23 24 24 22 20 19 18 16 14 12 11 12 13 15 16 17 17 18 19 21 22 23 23 23 24 26 27 26 26 28 25 21 19 17 17 18 18 16 14
45 42 39 40 40 40 38 38 38 37 37 36 35 33 33 33 29 26 26 24 19 19 21 22 24 25 24 23 21 19 18 16 13 11 11 11 13 15 16 17 17 18 19 20 21 22 23 24 25 26 26 26 26 28 26 21 19 17 17 18 18 16 14
46 42 38 38 40 41 41 40 39 39 38 38 36 34 34 34 29 26 26 23 19 20 22 23 24 25 25 24 22 20 18 15 13 11 10 11 13 15 16 17 17 18 18 19 20 21 21 23 25 26 27 26 26 28 27 23 19 17 15 16 17 15 14
47 44 39 38 39 41 41 41 40 40 40 39 37 35 34 33 29 26 26 21 19 21 22 23 25 25 26 24 22 20 18 15 13 11 10 11 13 14 15 16 17 18 19 19 19 19 20 21 23 25 27 26 25 26 26 23 21 17 15 15 16 15 14
48 45 41 39 39 40 41 40 40 41 41 39 37 36 34 33 29 27 25 21 19 21 22 24 25 26 26 25 22 20 17 15 13 11 10 11 13 14 15 15 16 17 18 19 19 19 20 21 21 22 25 26 24 24 24 23 21 18 16 16 16 15 14
50 46 43 42 41 40 40 39 39 41 41 40 39 37 35 32 28 26 25 21 20 22 23 24 25 26 27 25 23 20 17 15 14 11 10 11 13 14 15 15 16 17 18 18 18 19 19 20 20 21 23 24 24 23 23 23 21 18 16 17 17 16 16
52 47 44 43 42 41 39 38 39 40 40 40 40 38 35 32 27 26 24 22 22 23 23 25 26 27 28 25 23 20 16 15 14 11 10 11 13 14 14 15 16 16 17 18 18 18 18 19 21 21 22 23 23 23 23 22 21 19 18 18 19 19 18
53 49 45 44 43 41 38 37 38 39 40 40 40 39 36 31 26 25 25 23 23 23 24 25 26 28 28 25 23 19 16 15 14 12 10 11 13 14 15 15 15 15 16 18 18 18 18 20 21 22 22 22 22 23 23 22 21 20 20 20 20 20 20
52 48 44 44 43 42 40 37 37 38 39 40 40 38 34 29 26 25 26 25 24 25 25 26 27 28 27 25 22 19 16 15 15 12 11 11 13 14 15 15 15 15 16 17 18 19 19 20 21 22 22 22 22 23 23 23 22 22 21 22 22 21 21
53 48 44 44 44 43 42 38 36 37 39 38 37 36 32 28 26 26 27 27 26 26 27 27 28 28 27 25 23 19 16 16 15 12 11 12 14 15 15 15 15 15 15 16 17 19 19 20 20 21 22 23 23 23 23 23 23 23 23 23 23 23 22
51 48 44 44 45 45 44 41 38 38 38 36 35 34 32 29 28 28 28 28 27 27 28 29 29 28 27 25 23 19 17 17 16 13 12 13 15 15 15 15 15 14 14 15 16 18 18 19 20 21 22 22 23 23 23 23 23 23 23 24 24 24 23
48 46 44 45 47 48 47 44 41 40 39 36 34 34 33 31 30 29 29 28 27 27 28 29 29 28 27 26 24 20 17 17 16 14 13 14 16 16 15 15 14 14 14 15 16 17 18 19 20 20 21 21 22 22 22 23 23 23 23 23 23 24 24
48 46 43 43 47 49 49 47 44 42 39 36 35 35 34 33 31 30 29 28 27 27 28 30 29 28 28 27 25 21 19 18 17 15 13 15 17 16 15 15 14 14 15 15 16 17 18 20 20 20 21 21 22 22 23 23 23 23 23 23 23 23 24
47 43 39 40 46 48 49 48 45 43 40 37 37 37 35 35 32 30 29 27 26 26 28 30 29 28 28 28 26 23 20 19 18 15 14 15 17 17 16 15 15 15 15 16 17 18 19 20 21 21 22 22 23 24 24 24 24 25 25 24 24 24 23
48 42 35 38 45 48 47 47 44 42 41 39 39 38 37 36 32 29 28 27 26 27 29 30 29 29 29 28 27 25 22 21 19 15 14 16 17 17 17 16 16 16 16 17 18 19 20 21 21 21 22 23 24 25 25 25 25 26 26 27 26 25 24
52 45 40 41 46 47 44 44 44 43 42 41 40 39 37 35 31 30 30 28 28 29 30 30 29 28 28 28 27 26 25 23 20 16 17 18 17 17 17 17 17 17 17 18 19 20 20 21 22 22 23 24 25 25 25 26 26 26 26 26 26 25 25
54 46 41 43 50 49 42 42 46 46 44 43 41 39 37 35 32 32 32 30 30 30 30 29 29 29 28 28 28 27 26 26 23 20 20 18 15 16 17 17 17 17 18 19 19 20 21 21 22 22 23 24 25 25 26 26 26 26 26 26 26 26 25
52 44 36 38 48 50 45 45 48 48 47 44 41 39 38 35 34 35 34 31 30 29 29 30 30 30 31 31 32 30 28 27 26 23 21 18 15 15 16 17 18 18 19 19 20 21 21 22 23 23 23 24 25 26 26 27 27 27 27 27 27 26 26
54 47 36 31 37 42 44 46 48 48 47 44 41 40 38 36 36 37 34 31 29 29 30 31 32 33 34 36 36 34 30 27 25 23 21 19 16 15 16 17 18 19 20 20 20 21 22 23 24 24 24 24 25 26 27 27 28 28 28 28 28 28 28
57 54 41 31 32 37 41 45 47 47 46 44 42 41 38 37 38 36 32 29 29 30 31 32 32 34 36 36 35 34 30 26 24 23 23 21 19 17 17 18 19 20 21 22 22 23 24 25 25 25 25 25 26 27 27 28 28 28 29 29 29 29 29
59 58 48 37 35 38 42 46 47 46 46 45 43 41 39 39 38 34 31 29 29 31 31 32 32 34 34 33 29 27 27 25 22 23 24 23 22 20 19 19 20 21 22 23 23 24 25 26 27 27 27 26 26 27 27 28 28 29 29 30 30 30 30
58 58 50 42 39 41 45 48 47 46 46 45 43 42 40 39 36 33 30 29 29 31 31 30 31 31 30 29 26 25 27 28 26 26 25 25 25 23 22 21 21 22 23 23 24 25 26 27 28 28 28 27 27 27 27 27 28 29 30 31 31 31 31
55 54 49 44 43 44 47 49 47 45 46 45 43 42 40 38 34 31 30 29 30 31 30 29 29 29 28 28 26 26 29 31 31 29 27 27 28 26 25 24 23 23 23 23 24 25 26 27 28 29 28 28 28 28 28 28 29 29 31 32 32 33 33
52 50 46 44 45 46 47 48 46 45 46 45 43 41 39 36 33 30 30 30 30 31 30 28 28 29 29 28 27 27 29 30 30 30 29 29 29 28 27 25 24 24 24 24 25 25 27 28 29 29 29 28 28 29 29 30 30 31 31 33 33 34 35
48 46 45 45 46 45 44 45 45 46 47 45 42 40 38 35 32 31 30 29 30 30 30 29 29 29 30 30 29 28 27 27 28 28 28 28 28 28 27 26 25 25 25 25 25 26 27 28 29 30 29 29 29 30 30 31 31 31 32 33 34 35 36
44 44 45 45 43 42 42 43 45 47 46 44 41 40 38 35 33 31 29 29 30 30 31 31 30 30 30 31 30 29 27 26 26 27 26 26 27 27 27 26 26 26 26 26 25 26 27 29 30 30 30 30 30 31 31 32 32 32 33 34 35 36 37
42 44 45 44 43 43 42 43 45 46 45 43 41 40 39 36 33 31 29 29 30 31 31 31 31 31 31 29 29 29 28 27 27 26 26 26 26 27 27 27 27 27 26 26 26 27 28 29 31 31 31 31 32 32 32 32 33 33 34 35 36 37 38
43 45 44 44 45 46 44 45 46 46 45 44 43 41 39 35 32 29 28 29 30 31 32 32 32 33 31 29 27 27 28 27 27 26 26 27 27 27 28 28 28 28 27 27 27 28 29 30 31 32 32 32 32 32 33 33 34 35 36 37 38 39 39
44 43 42 44 48 49 48 48 48 46 45 44 43 41 37 33 29 28 29 30 31 32 32 32 32 33 32 30 28 27 27 27 26 27 27 28 28 28 28 29 29 28 28 28 28 29 31 32 32 33 33 33 33 33 33 34 35 36 37 38 39 40 41
42 41 40 42 47 51 51 49 46 44 44 44 41 38 34 31 28 28 30 31 31 32 33 33 33 33 32 31 28 27 26 26 26 27 28 28 28 29 29 29 29 29 29 30 30 31 32 33 33 33 34 33 33 33 34 35 37 38 39 40 41 40 41
42 42 42 44 48 50 49 45 43 44 44 41 38 36 33 30 29 30 30 31 32 33 34 34 33 31 31 31 30 27 25 26 27 29 29 29 28 29 29 29 30 30 30 31 31 32 33 33 33 34 34 34 34 35 36 37 38 40 40 40 39 39 39
43 44 46 48 47 46 44 42 42 43 41 39 37 35 32 31 30 30 30 31 33 34 33 33 31 30 31 31 29 26 26 27 29 29 29 29 29 29 29 30 31 31 31 32 33 33 33 33 34 35 35 35 35 36 37 39 40 39 38 37 37 38 38
44 45 47 48 46 43 42 41 41 42 40 38 37 36 33 32 31 31 31 31 32 33 32 31 31 31 30 29 27 27 29 30 30 30 30 29 29 30 31 32 32 32 32 33 33 33 33 33 34 35 35 35 36 37 38 39 38 36 36 37 38 39 40
Wind_Direction
212 210 214 216 215 218 222 229 237 243 249 256 261 264 265 267 268 255 248 252 261 275 288 295 299 301 303 303 304 306 306 305 305 302 302 308 312 315 319 323 326 325 325 326 326 328 330 327 326 328 331 334 333 325 321 321 309 296 294 298 300 296 293
209 208 211 214 216 219 223 228 236 242 247 254 260 262 263 264 265 258 249 250 258 269 281 289 293 297 299 299 301 302 301 301 301 299 300 307 313 316 319 322 325 326 326 325 325 327 328 327 327 329 331 334 334 328 322 320 308 295 294 295 299 299 294
208 207 211 214 218 222 224 229 235 241 245 250 255 258 260 261 265 262 249 248 256 266 276 284 289 294 296 297 298 297 296 296 296 294 298 308 315 316 319 321 323 325 326 324 324 328 328 329 330 331 332 334 335 333 325 316 303 294 294 291 291 295 296
208 207 209 214 219 223 225 229 234 240 244 247 251 256 258 260 266 266 251 246 254 264 273 281 287 292 295 296 296 294 293 292 291 291 297 309 314 315 318 320 321 324 325 323 325 330 332 331 333 333 333 335 336 337 334 323 307 293 287 285 286 293 296
210 208 208 212 218 222 225 228 233 239 243 246 251 254 257 260 267 269 253 245 253 263 271 279 285 291 294 294 293 290 289 287 286 288 296 306 311 314 317 317 319 323 325 324 327 333 334 333 336 334 333 336 338 339 339 332 317 299 286 282 284 292 292
214 213 211 212 215 220 225 228 233 239 242 246 250 252 256 260 266 268 254 245 253 262 269 277 284 290 292 292 290 287 284 283 283 285 291 303 310 313 316 316 318 323 323 325 330 333 335 335 336 335 334 336 337 339 341 336 324 309 295 287 287 292 289
218 214 213 213 215 219 224 228 233 239 241 243 247 250 254 258 263 265 255 246 253 262 268 277 283 289 291 289 287 283 281 281 280 280 288 301 309 312 315 316 319 321 322 327 332 333 335 337 337 336 336 335 333 337 342 340 332 323 310 297 293 294 290
218 214 212 212 215 218 222 227 231 236 238 241 245 249 254 258 261 262 254 247 254 262 269 276 282 288 289 286 284 280 280 280 276 277 287 300 306 309 312 315 318 319 322 327 330 333 334 335 336 336 337 338 336 337 342 343 339 333 321 309 303 302 299
213 213 214 213 215 217 220 225 228 232 235 238 243 247 252 256 259 257 251 247 255 263 269 276 281 287 286 284 281 278 278 278 274 276 287 298 303 307 311 314 316 316 320 324 325 331 334 331 333 335 336 340 340 340 342 344 342 337 327 318 315 312 307
211 212 214 215 217 218 220 223 226 229 233 236 241 245 249 252 254 250 245 246 256 263 269 275 280 285 284 282 279 276 277 276 273 276 287 296 301 306 310 312 312 314 319 322 323 329 332 329 332 336 336 338 340 340 341 342 342 338 328 320 317 314 309
210 211 213 216 217 219 220 221 223 226 229 234 239 243 246 248 246 241 240 246 255 262 268 273 279 282 281 280 277 275 276 274 272 277 286 294 299 304 306 306 307 311 315 319 323 327 330 330 333 335 334 336 337 338 339 339 340 337 330 321 318 315 311
207 209 214 218 218 218 217 216 220 224 227 233 238 241 244 241 234 232 238 246 253 261 266 272 277 280 279 278 275 273 274 271 270 276 285 293 298 299 298 298 302 308 312 317 324 328 330 332 333 333 333 335 336 336 336 336 336 334 329 325 323 321 317
207 209 214 219 218 216 213 214 219 225 228 232 236 239 238 231 225 229 238 245 252 259 264 270 275 277 277 275 272 271 271 268 268 275 284 290 293 291 291 293 298 304 310 316 322 327 331 332 331 331 332 334 335 335 333 333 332 330 327 325 324 323 321
214 215 216 218 219 215 211 213 220 225 228 230 233 233 229 223 222 229 237 244 252 258 262 268 272 274 274 273 270 270 268 265 267 275 282 285 286 286 288 293 297 301 308 313 318 322 326 328 328 329 331 333 334 333 332 330 329 328 327 325 324 322 319
219 222 221 220 221 219 215 216 221 225 227 228 227 226 223 221 222 228 236 243 251 257 262 267 271 272 271 270 269 268 265 264 266 271 278 281 282 284 287 290 294 299 305 309 312 316 319 323 325 327 329 331 331 331 330 329 329 327 327 325 323 321 318
222 227 227 224 224 226 224 221 222 224 225 224 222 221 222 222 224 228 235 243 251 257 263 267 270 270 269 268 267 265 262 262 263 267 274 278 280 281 281 282 286 292 299 303 306 310 314 317 320 323 325 327 328 328 328 328 328 328 327 326 323 321 319
225 228 228 225 225 229 230 226 222 222 222 220 219 220 222 224 225 229 235 244 252 258 264 267 269 269 267 266 265 262 260 260 261 265 273 278 279 280 279 278 282 287 292 298 302 306 309 312 316 319 321 323 324 325 326 327 327 327 326 326 323 321 318
222 219 220 223 224 227 229 227 223 221 220 218 218 220 223 225 227 230 237 246 253 259 264 267 268 268 267 267 265 261 258 259 260 264 272 277 280 282 281 279 281 285 288 294 299 303 307 310 313 317 319 320 320 322 325 326 326 326 326 326 325 323 320
215 213 223 228 223 224 226 226 225 222 219 217 217 219 222 225 227 231 238 246 251 257 261 264 267 267 267 269 267 262 260 259 259 263 271 276 280 284 286 284 284 285 288 293 297 300 304 307 311 314 315 315 316 319 322 323 324 325 326 327 326 325 323
216 221 239 238 224 221 222 224 225 224 220 218 218 219 222 224 227 232 238 244 249 254 259 263 267 268 269 271 269 266 265 262 261 265 267 271 279 288 289 288 287 288 291 294 296 299 303 306 309 311 311 311 313 316 318 320 321 323 324 324 324 323 322
222 229 244 238 223 220 221 223 225 225 223 220 218 219 221 224 227 233 238 244 250 255 262 266 268 269 270 268 266 266 265 263 264 266 266 270 282 290 291 292 293 293 293 294 296 301 305 306 307 308 308 309 311 313 315 317 318 319 320 321 321 321 320
224 227 239 234 222 222 225 224 224 225 225 222 218 219 221 224 229 235 240 245 251 257 263 265 267 268 267 263 259 254 251 254 258 261 267 276 285 287 291 295 296 294 294 295 298 303 305 305 305 305 306 307 309 311 313 314 316 317 317 318 320 320 319
221 223 234 234 223 221 223 222 223 225 224 220 218 221 223 225 231 236 241 247 252 257 261 263 265 266 266 265 261 253 246 245 247 255 270 279 280 283 290 294 295 296 297 299 302 304 304 304 304 304 305 307 308 311 312 313 315 316 317 318 319 319 317
219 221 231 238 228 220 219 220 222 223 220 218 219 222 224 227 232 237 242 248 252 256 260 263 266 269 269 268 267 262 251 240 240 256 272 276 276 281 288 291 295 298 300 302 303 303 304 304 303 304 306 308 310 311 312 313 314 315 315 316 316 316 315
221 221 228 238 232 221 218 219 221 221 218 217 220 222 225 229 233 237 243 248 253 257 262 266 269 270 269 267 266 263 250 240 248 266 272 274 277 280 285 291 294 296 299 300 301 302 302 302 303 304 306 309 310 311 311 312 312 313 313 312 312 312 312
224 223 227 236 231 220 216 218 220 220 218 217 220 223 226 230 233 238 244 249 255 260 263 268 270 268 265 262 260 255 244 243 259 274 274 275 279 281 284 289 290 293 296 297 298 300 301 301 302 304 306 309 309 309 310 310 311 310 310 310 310 310 310
226 224 228 233 225 217 217 218 220 220 218 217 220 223 226 230 234 239 244 250 255 259 263 267 267 264 263 261 257 252 245 246 259 274 279 280 282 284 286 286 286 290 294 296 298 299 300 301 302 303 306 308 308 309 309 309 308 308 308 308 309 310 310
225 224 228 227 220 216 217 217 219 219 217 218 221 224 227 230 234 239 244 250 254 259 263 266 265 262 262 261 257 252 250 250 258 271 278 280 282 285 286 284 284 288 293 295 298 300 300 301 302 303 305 306 307 308 307 307 306 306 306 307 307 308 308
222 223 226 222 217 216 216 217 219 217 216 218 221 224 227 230 233 239 245 250 255 259 263 263 262 260 259 258 257 254 252 252 257 268 274 278 281 283 283 283 284 287 292 295 298 300 300 301 301 302 303 305 306 306 305 304 304 303 303 304 304 304 305
221 223 223 218 216 216 217 218 217 214 214 217 221 224 227 229 232 238 244 249 254 257 261 261 260 258 258 257 257 254 251 251 258 268 274 278 280 281 281 283 284 287 292 296 298 299 300 300 300 300 302 303 303 303 302 302 301 300 301 301 301 302 303
220 220 218 215 214 216 216 215 211 210 213 217 220 224 227 228 232 237 242 248 252 256 259 260 257 256 258 258 255 250 250 255 264 271 277 280 281 280 281 282 284 287 292 295 298 299 298 298 298 299 299 300 300 300 300 299 298 298 299 300 301 302 303
214 214 214 214 214 214 212 209 207 210 215 217 220 224 227 229 233 237 243 248 250 253 256 256 254 253 255 257 254 250 253 261 268 273 278 280 280 279 280 281 284 288 292 294 296 297 297 297 296 296 297 297 298 298 297 297 297 297 299 299 300 300 300
208 210 213 215 213 210 207 205 208 214 217 218 221 224 228 232 235 239 244 247 248 250 252 252 250 250 252 254 253 252 257 264 270 274 276 278 277 278 279 280 283 288 291 294 295 295 295 295 294 294 295 295 296 296 295 295 296 297 298 298 298 299 300
206 207 207 205 201 200 202 205 210 216 218 220 223 226 229 233 237 240 243 247 250 251 251 250 250 250 253 254 250 250 257 265 271 274 274 274 275 276 278 281 284 288 291 293 294 293 293 293 293 293 293 294 294 294 294 295 297 297 298 299 299 301 302
203 202 198 194 193 197 202 207 213 217 220 222 225 228 230 234 237 239 244 249 253 252 251 251 251 253 257 254 245 246 259 268 272 272 272 272 275 277 280 282 285 288 290 292 293 293 293 294 293 293 293 293 293 293 295 296 297 298 299 300 301 302 303
200 199 197 196 197 201 207 213 218 221 224 226 229 231 232 234 235 238 243 250 253 253 253 253 252 253 253 245 237 245 262 269 268 269 271 273 277 280 281 283 285 288 290 292 293 294 295 294 294 295 295 295 295 295 297 298 298 300 301 301 302 303 304
198 199 199 200 204 208 214 220 223 225 227 229 232 234 235 236 236 238 243 248 250 252 255 256 255 252 245 237 238 252 264 265 266 269 273 276 279 281 282 284 286 288 291 292 294 295 296 296 297 297 297 297 298 299 299 297 298 300 302 303 303 304 304
Height
5806 5809 5812 5815 5819 5823 5827 5831 5834 5836 5838 5838 5838 5839 5840 5841 5844 5845 5845 5845 5845 5845 5845 5845 5844 5843 5842 5841 5840 5840 5839 5838 5837 5836 5835 5834 5833 5833 5832 5832 5832 5831 5831 5830 5829 5828 5826 5824 5821 5818 5817 5817 5814 5811 5808 5807 5805 5804 5804 5802 5802 5803 5803
5803 5806 5809 5812 5816 5820 5824 5828 5831 5833 5835 5836 5836 5837 5838 5839 5841 5843 5843 5844 5843 5843 5844 5844 5843 5842 5840 5840 5839 5838 5838 5837 5836 5835 5833 5832 5831 5831 5830 5830 5830 5830 5829 5828 5827 5826 5824 5822 5820 5817 5815 5814 5812 5810 5806 5805 5803 5802 5802 5800 5800 5802 5802
5801 5804 5807 5811 5814 5818 5822 5825 5828 5830 5832 5834 5834 5835 5836 5836 5839 5841 5841 5842 5842 5842 5842 5842 5841 5840 5839 5838 5837 5837 5836 5835 5834 5833 5832 5831 5830 5830 5829 5829 5829 5829 5828 5826 5825 5824 5821 5819 5817 5815 5813 5811 5809 5808 5806 5803 5802 5801 5800 5799 5799 5800 5801
5798 5802 5805 5808 5813 5816 5820 5823 5826 5827 5829 5831 5831 5833 5833 5834 5836 5838 5839 5840 5840 5840 5841 5840 5839 5838 5837 5836 5836 5835 5835 5834 5833 5832 5830 5829 5829 5828 5828 5827 5827 5827 5826 5824 5823 5821 5819 5817 5816 5814 5812 5810 5807 5805 5804 5802 5800 5799 5797 5797 5797 5798 5799
5797 5800 5802 5806 5810 5814 5817 5820 5823 5825 5826 5828 5829 5830 5831 5831 5833 5836 5837 5838 5838 5839 5839 5838 5837 5837 5836 5835 5834 5834 5833 5832 5831 5830 5829 5828 5828 5827 5827 5826 5825 5825 5825 5823 5821 5819 5816 5814 5813 5812 5810 5809 5806 5803 5802 5800 5798 5797 5796 5795 5796 5797 5797
5795 5798 5801 5804 5807 5810 5814 5817 5820 5822 5823 5825 5826 5827 5828 5829 5831 5833 5834 5835 5836 5837 5837 5836 5836 5835 5834 5834 5833 5832 5832 5830 5829 5828 5827 5827 5826 5826 5825 5824 5823 5823 5823 5822 5820 5817 5815 5813 5811 5810 5809 5807 5805 5802 5800 5798 5797 5796 5795 5794 5795 5795 5795
5793 5797 5799 5802 5804 5807 5810 5813 5816 5818 5819 5821 5823 5824 5825 5826 5829 5831 5832 5833 5834 5835 5835 5834 5834 5834 5833 5832 5832 5831 5830 5829 5828 5827 5826 5825 5825 5824 5823 5822 5821 5821 5821 5821 5819 5816 5814 5812 5810 5808 5807 5806 5804 5801 5799 5797 5795 5794 5793 5793 5793 5794 5793
5791 5795 5797 5799 5801 5803 5806 5809 5812 5814 5816 5818 5820 5821 5823 5824 5826 5828 5830 5831 5832 5833 5833 5832 5832 5832 5831 5831 5830 5830 5828 5827 5826 5825 5824 5823 5823 5823 5822 5821 5820 5820 5819 5818 5817 5816 5813 5812 5811 5808 5805 5804 5803 5801 5798 5796 5795 5793 5792 5791 5791 5792 5791
5786 5791 5794 5796 5797 5800 5802 5805 5808 5809 5812 5815 5817 5819 5820 5822 5824 5826 5828 5829 5830 5831 5830 5830 5830 5830 5830 5829 5829 5828 5827 5825 5824 5823 5822 5822 5821 5821 5820 5819 5819 5818 5817 5816 5815 5814 5812 5811 5810 5808 5805 5803 5802 5800 5798 5796 5795 5793 5792 5790 5790 5790 5790
5781 5786 5790 5792 5794 5796 5798 5801 5803 5805 5808 5812 5814 5816 5817 5819 5821 5824 5826 5827 5828 5828 5828 5827 5827 5827 5827 5827 5827 5826 5825 5824 5823 5821 5820 5820 5820 5819 5818 5818 5818 5817 5816 5814 5814 5813 5811 5809 5808 5807 5805 5803 5801 5800 5798 5797 5795 5793 5792 5790 5789 5789 5788
5777 5782 5786 5789 5790 5792 5794 5797 5799 5801 5805 5808 5811 5812 5814 5816 5819 5821 5823 5825 5826 5826 5825 5824 5825 5825 5825 5825 5825 5824 5823 5822 5821 5820 5819 5818 5818 5818 5817 5816 5816 5816 5814 5813 5812 5811 5809 5807 5806 5805 5804 5802 5800 5798 5797 5796 5795 5793 5791 5790 5789 5788 5787
5773 5779 5783 5786 5787 5789 5792 5794 5796 5798 5802 5805 5807 5809 5811 5813 5816 5819 5821 5822 5823 5823 5822 5821 5822 5822 5822 5822 5822 5822 5821 5820 5819 5818 5817 5817 5816 5816 5815 5815 5815 5815 5813 5811 5810 5809 5807 5806 5805 5804 5803 5801 5799 5797 5796 5794 5793 5792 5790 5789 5787 5786 5785
5771 5776 5780 5783 5784 5786 5788 5791 5793 5795 5798 5801 5804 5806 5808 5810 5813 5816 5818 5819 5820 5819 5818 5818 5819 5819 5819 5820 5820 5820 5819 5818 5817 5816 5815 5815 5815 5814 5813 5813 5813 5813 5812 5810 5808 5807 5805 5804 5803 5802 5801 5799 5798 5796 5794 5793 5791 5790 5789 5787 5786 5785 5783
5768 5772 5777 5780 5782 5783 5785 5787 5789 5792 5795 5798 5801 5803 5805 5808 5810 5812 5814 5816 5816 5816 5815 5816 5816 5816 5817 5817 5818 5818 5817 5816 5815 5814 5813 5813 5812 5812 5812 5811 5811 5810 5810 5809 5807 5805 5804 5803 5802 5800 5799 5797 5795 5794 5792 5791 5790 5789 5788 5786 5784 5783 5781
5765 5769 5773 5777 5780 5782 5782 5784 5786 5788 5792 5795 5797 5800 5802 5805 5806 5809 5811 5812 5813 5813 5813 5813 5814 5814 5814 5814 5815 5815 5815 5814 5813 5812 5811 5811 5810 5810 5810 5810 5809 5808 5807 5807 5806 5805 5803 5802 5800 5799 5797 5795 5794 5792 5790 5789 5788 5787 5786 5784 5783 5781 5779
5762 5766 5770 5774 5778 5781 5782 5782 5783 5785 5789 5792 5794 5797 5799 5801 5803 5805 5808 5809 5811 5811 5811 5811 5811 5812 5812 5812 5813 5813 5812 5812 5811 5809 5809 5808 5808 5809 5808 5808 5807 5806 5805 5805 5804 5803 5802 5800 5799 5798 5796 5794 5793 5791 5789 5787 5786 5785 5784 5783 5781 5779 5778
5758 5763 5768 5771 5774 5778 5781 5781 5781 5782 5785 5788 5791 5794 5796 5798 5800 5803 5805 5807 5809 5809 5809 5809 5809 5809 5810 5810 5810 5810 5810 5809 5808 5807 5806 5806 5806 5807 5806 5806 5805 5804 5803 5803 5802 5801 5800 5799 5797 5796 5794 5793 5791 5790 5788 5786 5784 5783 5782 5781 5779 5778 5776
5756 5760 5765 5767 5770 5774 5777 5780 5780 5781 5782 5785 5788 5790 5793 5795 5798 5801 5804 5806 5807 5807 5806 5806 5806 5807 5808 5808 5809 5809 5808 5807 5806 5805 5804 5804 5804 5804 5804 5803 5802 5802 5801 5801 5800 5799 5798 5797 5795 5794 5792 5791 5789 5788 5786 5784 5783 5781 5780 5778 5777 5776 5775
5754 5758 5761 5764 5767 5770 5773 5777 5780 5780 5780 5782 5784 5787 5790 5793 5797 5800 5802 5803 5803 5802 5802 5802 5803 5804 5806 5806 5807 5807 5806 5806 5804 5803 5802 5802 5802 5802 5801 5801 5800 5799 5799 5798 5797 5797 5796 5795 5793 5792 5790 5789 5787 5786 5784 5783 5781 5779 5777 5776 5774 5773 5772
5752 5756 5758 5761 5763 5765 5769 5774 5778 5778 5778 5779 5780 5783 5787 5792 5795 5797 5798 5798 5798 5798 5799 5799 5800 5802 5803 5804 5805 5805 5805 5805 5803 5802 5801 5800 5800 5800 5799 5799 5798 5797 5796 5796 5795 5794 5793 5792 5791 5790 5789 5787 5786 5784 5783 5781 5780 5778 5776 5775 5773 5771 5770
5750 5754 5755 5756 5758 5762 5766 5771 5774 5775 5776 5776 5778 5782 5786 5789 5791 5793 5793 5794 5795 5797 5798 5798 5798 5799 5800 5800 5801 5802 5803 5803 5802 5802 5800 5799 5797 5797 5797 5796 5796 5795 5794 5793 5792 5792 5791 5790 5789 5788 5787 5785 5783 5782 5781 5779 5778 5777 5775 5774 5772 5770 5768
5747 5751 5751 5751 5754 5759 5763 5766 5769 5771 5773 5775 5778 5781 5783 5786 5788 5789 5791 5792 5794 5795 5795 5795 5795 5796 5796 5796 5796 5796 5796 5798 5800 5801 5800 5797 5795 5795 5794 5794 5793 5793 5792 5791 5790 5789 5788 5787 5786 5785 5784 5783 5781 5779 5778 5777 5776 5774 5773 5771 5769 5767 5766
5742 5745 5747 5749 5752 5756 5760 5762 5765 5768 5770 5774 5776 5779 5781 5783 5785 5786 5788 5790 5792 5792 5792 5792 5792 5792 5792 5792 5792 5792 5791 5792 5796 5798 5797 5796 5794 5792 5792 5792 5791 5790 5789 5788 5787 5786 5785 5785 5784 5783 5781 5780 5778 5777 5775 5774 5773 5771 5769 5768 5766 5764 5762
5738 5741 5745 5749 5751 5754 5756 5759 5763 5765 5768 5771 5774 5776 5779 5780 5781 5783 5786 5788 5789 5789 5789 5789 5790 5790 5789 5789 5789 5789 5789 5790 5792 5794 5794 5793 5791 5790 5790 5789 5788 5787 5786 5785 5784 5783 5783 5782 5781 5780 5778 5777 5776 5774 5773 5771 5769 5768 5766 5764 5763 5761 5759
5733 5738 5743 5747 5750 5751 5753 5757 5760 5763 5766 5768 5771 5773 5775 5777 5778 5781 5783 5785 5785 5786 5786 5787 5787 5787 5786 5785 5785 5786 5788 5789 5790 5790 5789 5789 5788 5787 5787 5786 5785 5784 5783 5782 5781 5781 5780 5779 5778 5777 5775 5774 5773 5771 5770 5768 5766 5764 5762 5761 5759 5758 5756
5730 5736 5741 5745 5746 5747 5750 5755 5758 5761 5763 5766 5768 5770 5771 5774 5776 5779 5781 5782 5782 5783 5783 5784 5784 5784 5782 5782 5782 5784 5786 5787 5786 5786 5786 5785 5785 5785 5784 5783 5782 5781 5780 5779 5779 5778 5777 5776 5775 5774 5772 5771 5769 5768 5766 5765 5763 5761 5759 5758 5756 5755 5753
5728 5733 5738 5741 5742 5744 5747 5752 5756 5759 5761 5763 5765 5767 5769 5771 5774 5777 5778 5779 5779 5779 5779 5780 5781 5781 5780 5780 5780 5781 5782 5783 5783 5782 5782 5782 5782 5782 5781 5780 5779 5778 5777 5776 5775 5775 5774 5773 5772 5771 5769 5767 5766 5764 5763 5761 5759 5758 5756 5754 5753 5751 5749
5725 5731 5735 5737 5738 5741 5745 5750 5753 5756 5758 5760 5762 5764 5766 5769 5772 5774 5775 5775 5775 5775 5776 5776 5777 5778 5777 5777 5778 5778 5779 5779 5780 5780 5779 5779 5778 5778 5778 5777 5776 5775 5774 5773 5772 5771 5770 5769 5769 5767 5766 5764 5762 5761 5759 5757 5756 5754 5752 5751 5749 5747 5745
5723 5728 5731 5733 5735 5739 5743 5747 5750 5753 5755 5757 5759 5761 5764 5767 5770 5771 5771 5771 5772 5772 5772 5773 5774 5775 5775 5775 5775 5775 5775 5776 5776 5776 5776 5776 5775 5775 5774 5774 5773 5772 5771 5770 5769 5768 5767 5766 5766 5764 5763 5761 5759 5757 5756 5754 5752 5751 5749 5747 5746 5744 5742
5721 5725 5727 5730 5733 5737 5740 5744 5746 5749 5752 5755 5757 5759 5761 5764 5766 5767 5767 5768 5768 5769 5769 5770 5772 5772 5772 5772 5772 5772 5772 5772 5773 5773 5772 5772 5772 5771 5771 5771 5770 5769 5768 5767 5766 5765 5764 5763 5762 5761 5760 5758 5756 5754 5752 5751 5749 5747 5745 5743 5741 5740 5738
5718 5721 5724 5728 5730 5734 5737 5740 5743 5746 5748 5751 5753 5755 5757 5760 5762 5763 5763 5764 5765 5766 5767 5768 5769 5769 5769 5768 5768 5769 5769 5769 5769 5769 5769 5768 5768 5768 5768 5767 5766 5766 5765 5764 5763 5762 5761 5760 5759 5758 5756 5754 5752 5750 5749 5747 5745 5743 5741 5739 5737 5735 5734
5714 5717 5721 5724 5726 5730 5734 5736 5739 5741 5744 5747 5750 5751 5753 5756 5758 5759 5760 5761 5762 5763 5763 5764 5765 5766 5765 5765 5765 5765 5766 5766 5766 5766 5766 5766 5766 5765 5765 5764 5763 5762 5761 5761 5759 5758 5757 5757 5756 5754 5752 5750 5748 5747 5745 5743 5741 5740 5738 5735 5733 5731 5730
5711 5714 5717 5719 5722 5726 5730 5732 5735 5737 5740 5743 5746 5749 5751 5753 5754 5756 5756 5757 5758 5760 5760 5761 5762 5762 5762 5762 5761 5762 5762 5762 5762 5763 5763 5763 5763 5762 5761 5760 5759 5759 5758 5757 5756 5755 5754 5753 5752 5751 5749 5746 5745 5743 5741 5739 5738 5736 5734 5732 5730 5728 5726
5708 5711 5713 5715 5718 5722 5725 5728 5731 5734 5737 5740 5743 5746 5748 5750 5752 5752 5752 5753 5755 5757 5757 5757 5757 5757 5757 5757 5757 5758 5759 5759 5759 5760 5760 5760 5759 5758 5758 5757 5756 5755 5753 5752 5752 5751 5750 5749 5748 5747 5745 5743 5741 5739 5737 5736 5734 5732 5730 5728 5726 5724 5722
5706 5709 5711 5713 5715 5719 5722 5726 5730 5732 5734 5737 5739 5742 5745 5747 5749 5749 5749 5750 5752 5752 5752 5752 5753 5753 5753 5752 5753 5755 5756 5756 5756 5756 5756 5756 5755 5755 5754 5753 5752 5750 5749 5748 5748 5747 5746 5746 5745 5743 5741 5739 5737 5735 5734 5732 5730 5728 5726 5724 5722 5720 5718
5703 5705 5708 5711 5714 5717 5721 5725 5728 5730 5732 5734 5735 5738 5741 5745 5746 5746 5747 5747 5747 5747 5748 5748 5749 5750 5750 5750 5751 5752 5753 5753 5753 5753 5753 5752 5752 5751 5750 5749 5747 5746 5745 5744 5744 5743 5743 5742 5741 5739 5737 5735 5733 5732 5730 5728 5726 5724 5722 5720 5718 5716 5714
5700 5703 5706 5709 5713 5717 5720 5723 5726 5728 5730 5731 5732 5735 5739 5742 5742 5743 5744 5743 5743 5743 5744 5744 5745 5745 5746 5747 5748 5749 5749 5749 5749 5749 5749 5749 5748 5747 5746 5744 5743 5742 5741 5741 5740 5739 5739 5738 5737 5735 5733 5731 5729 5727 5726 5724 5722 5720 5718 5716 5714 5713 5710